Powrót do katalogu

STARLINK-2731

AktywnyŁącznośćVLEO
NORAD 48651·PAYLOAD·🇺🇸 United States

Wystrzelony May 26, 2021 z Cape Canaveral Space Force Station

Loading…

Następne Przeloty (najbliższe 24 godziny)

TLE

ŚwieżeSource: CelesTrak SupGP

Epoka: Sep 14, 2026, 20:57 UTC

1 48651C 21044P   26257.87340278 -.00021203  00000+0 -68182-3 0  2570
2 48651  53.1588 313.5253 0001080  89.2802 144.6511 15.31712517    12

Śledź STARLINK-2731 w czasie rzeczywistym z AllMySat

Download on the App Store